Погода в Андоре

Италия     43°57′00″N   8°08′48″E
темп.,
°C
ветер,
м/с
пор.,
м/с
влажн.,
%
обл.,
%
осадки,
мм/ч
давл.,
гПа
погр.,
м
13 мая, чт
чт1323:00+15ссв347978 0.1 1008447
02:00+14ссв678272 0.3 1007524
05:00+13ссв67843 0.0 1006399
08:00+14ссз33772 0.0 1007242
11:00+15в43763 0.1 1006426
14:00+15в33789 0.2 1006509
17:00+15св237976 0.0 1005363
20:00+15св7776100 0.1 1006658
14 мая, пт
пт1423:00+15ссв44773 0.0 1007580
02:00+13ссз2280100 0.0 1007169
05:00+14с2280100 0.1 1007239
08:00+14св448185 0.6 1008505
11:00+15всв337744 0.1 1009405
14:00+15ю2275100 1.4 1009352
17:00+15ю327386 0.4 1008549
20:00+14в117359 0.6 1009406
15 мая, сб
сб1523:00+14ссв347611 0.1 1011553
02:00+13с3382100 0.1 1011269
05:00+13ссз1180100 0.0 1011308
08:00+14сз2179100 0.0 1012226
11:00+14ю3380100 0.4 1012364
14:00+15ю5574100 0.7 1011620
17:00+15св1169100 0.0 1009360
20:00+15ссв5473100 0.0 1008445
16 мая, вс
вс1623:00+14зсз22765 0.0 100882
02:00+14ссз3375100 0.0 1008122
05:00+14с1176100 0.0 1007124
08:00+15с3477100 0.0 1007288
11:00+15св3480100 0.0 1008387
14:00+16св3381100 0.0 1007321
17:00+16св448298 0.0 1006343
20:00+16св448410 0.0 1005361
17 мая, пн
пн1723:00+15ссз44872 0.0 1006172
02:00+14ссз44850 0.0 1005194
05:00+14с33857 0.0 1005240
08:00+15с338266 0.0 1006328
11:00+16в337856 0.0 1006344
14:00+16зюз12774 0.1 1007276
17:00+17всв33730 0.7 1003131
20:00+17ссв33720 0.7 100451